Location: Marcé
(47.5801°N, 0.3280°W)
Time: 19:17:05
(UTC+01:00)

A-11 Canister half - All Passes

Search period start: 06 December 2021 00:00
Search period end: 16 December 2021 00:00
Orbit: 1516 x 1684 km, 47.2° (Epoch: 05 December)

Date Brightness Start Highest point End Pass type
(mag) Time Alt. Az. Time Alt. Az. Time Alt. Az.
06 Dec - 05:29:00 10° S 05:35:27 21° SE 05:42:03 10° E visible
06 Dec - 07:29:26 10° SW 07:38:44 56° SSE 07:48:22 10° ENE visible
06 Dec - 09:33:35 10° W 09:43:25 87° S 09:53:34 10° E daylight
06 Dec - 11:38:36 10° W 11:48:34 80° SSW 11:58:44 10° ESE daylight
06 Dec - 13:43:41 10° WNW 13:52:57 43° SW 14:02:17 10° SSE daylight
06 Dec - 15:51:48 10° W 15:55:53 13° WSW 15:59:58 10° SSW daylight
07 Dec - 05:06:34 10° SSE 05:12:39 19° SE 05:18:52 10° E visible
07 Dec - 07:06:38 10° SW 07:15:51 54° SSE 07:25:24 10° ENE visible
07 Dec - 09:10:40 10° WSW 09:20:28 86° S 09:30:36 10° E daylight
07 Dec - 11:15:40 10° W 11:25:37 81° SSW 11:35:48 10° ESE daylight
07 Dec - 13:20:44 10° WNW 13:30:04 46° SW 13:39:30 10° SSE daylight
07 Dec - 15:28:20 10° W 15:33:05 14° WSW 15:37:51 10° SSW daylight
08 Dec - 04:44:12 10° SSE 04:49:52 18° SE 04:55:39 10° E visible
08 Dec - 06:43:51 10° SW 06:52:58 51° SE 07:02:26 10° ENE visible
08 Dec - 08:47:45 10° WSW 08:57:31 85° SSE 09:07:37 10° E daylight
08 Dec - 10:52:44 10° W 11:02:40 82° SSW 11:12:51 10° ESE daylight
08 Dec - 12:57:46 10° WNW 13:07:10 48° SW 13:16:41 10° SSE daylight
08 Dec - 15:04:58 10° W 15:10:17 16° SW 15:15:38 10° SSW daylight
09 Dec - 04:21:53 10° SSE 04:27:05 16° SE 04:32:22 10° E visible
09 Dec - 06:21:05 10° SW 06:30:06 49° SE 06:39:26 10° ENE visible
09 Dec - 08:24:51 10° WSW 08:34:34 84° SSE 08:44:39 10° E daylight
09 Dec - 10:29:49 10° W 10:39:43 84° SSW 10:49:53 10° ESE daylight
09 Dec - 12:34:49 10° WNW 12:44:17 50° SW 12:53:53 10° SE daylight
09 Dec - 14:41:40 10° W 14:47:29 17° SW 14:53:19 10° SSW daylight
10 Dec - 03:59:40 10° SSE 04:04:19 15° ESE 04:09:01 10° E visible
10 Dec - 05:58:20 10° SSW 06:07:14 47° SE 06:16:28 10° ENE visible
10 Dec - 08:01:56 10° WSW 08:11:38 83° SSE 08:21:41 10° E visible
10 Dec - 10:06:53 10° W 10:16:46 85° S 10:26:56 10° ESE daylight
10 Dec - 12:11:52 10° WNW 12:21:23 52° SW 12:31:04 10° SE daylight
10 Dec - 14:18:27 10° W 14:24:40 19° SW 14:30:56 10° SSW daylight
11 Dec - 03:37:33 10° SSE 03:41:32 13° ESE 03:45:34 10° E visible
11 Dec - 05:35:35 10° SSW 05:44:22 45° SE 05:53:28 10° ENE visible
11 Dec - 07:39:03 10° WSW 07:48:41 81° SSE 07:58:42 10° E visible
11 Dec - 09:43:58 10° W 09:53:49 86° S 10:03:58 10° ESE daylight
11 Dec - 11:48:56 10° WNW 11:58:29 54° SSW 12:08:13 10° SE daylight
11 Dec - 13:55:16 10° W 14:01:51 20° SW 14:08:29 10° S daylight
12 Dec - 03:15:37 10° SE 03:18:46 12° ESE 03:21:57 10° ESE visible
12 Dec - 05:12:51 10° SSW 05:21:31 43° SE 05:30:30 10° ENE visible
12 Dec - 07:16:10 10° WSW 07:25:46 80° SSE 07:35:45 10° E visible
12 Dec - 09:21:03 10° W 09:30:52 86° S 09:41:00 10° ESE daylight
12 Dec - 11:26:01 10° WNW 11:35:35 56° SSW 11:45:22 10° SE daylight
12 Dec - 13:32:08 10° W 13:39:02 21° SW 13:46:00 10° S daylight
13 Dec - 02:54:06 10° SE 02:56:00 11° ESE 02:57:55 10° ESE visible
13 Dec - 04:50:08 10° SSW 04:58:40 40° SE 05:07:30 10° ENE visible
13 Dec - 06:53:17 10° WSW 07:02:50 78° SSE 07:12:47 10° E visible
13 Dec - 08:58:08 10° W 09:07:55 87° S 09:18:02 10° E daylight
13 Dec - 11:03:04 10° WNW 11:12:40 58° SSW 11:22:30 10° SE daylight
13 Dec - 13:09:01 10° W 13:16:12 23° SW 13:23:28 10° S daylight
14 Dec - 04:27:26 10° SSW 04:35:50 38° SE 04:44:30 10° ENE visible
14 Dec - 06:30:24 10° WSW 06:39:55 77° SSE 06:49:48 10° ENE visible
14 Dec - 08:35:13 10° W 08:44:58 88° S 08:55:03 10° E daylight
14 Dec - 10:40:09 10° WNW 10:49:46 60° SSW 10:59:38 10° SE daylight
14 Dec - 12:45:56 10° W 12:53:23 24° SW 13:00:55 10° S daylight
15 Dec - 04:04:44 10° SSW 04:13:00 36° SE 04:21:31 10° ENE visible
15 Dec - 06:07:32 10° WSW 06:17:00 75° SSE 06:26:51 10° ENE visible
15 Dec - 08:12:18 10° W 08:22:01 88° S 08:32:06 10° E daylight
15 Dec - 10:17:14 10° WNW 10:26:52 62° SSW 10:36:45 10° SE daylight
15 Dec - 12:22:53 10° W 12:30:32 26° SW 12:38:19 10° S daylight
